Flag for Guernsey Weather past 2 weeks in St. Peter Port, Guernsey

Now
52 °F

Passing clouds.


Feels Like: 46 °F
Forecast: 52 / 58 °F
Wind: 17 mph from West

Location: Cherbourg / Maupertus

Current Time: May 28, 2015 at 1:49:59 AM

Latest Report: May 28, 2015 at 1:00 AM


Visibility: N/A

Pressure: 30.09 "Hg

Humidity: 88%

Dew point: 48 °F

Location of St. Peter PortLocation

Historic Weather in St. Peter Port — Graph

°F

St. Peter Port temperature yesterday

Maximum temperature yesterday: 64 °F (at 3:30 PM)
Minimum temperature yesterday: 46 °F (at 3:30 AM)
Average temperature yesterday: 56 °F

Past Weeks' High & Low Weather Summary

 TemperatureHumidityPressure
High64 °F (May 27, 3:30 PM)100% (May 13, 5:00 AM)30.42 "Hg (May 13, 5:00 AM)
Low41 °F (May 13, 1:00 AM)52% (May 27, 4:30 PM)29.74 "Hg (May 19, 3:00 AM)
Average52 °F81%30.15 "Hg
* Reported Midnight between May 12 and May 13 — May 28 12:30 AM, St. Peter Port, Weather by CustomWeather, © 2015

Note: Actual official high and low records may vary slightly from our data, if they occured in-between our weather recording intervals... More about our weather records

Advertising

St. Peter Port weather history for previous 24 hours

 ConditionsComfort  
Time TempWeatherWind HumidityBarometerVisibility
12:30 AM
Thu, May 28
52 °FMostly cloudy.18 mph88%30.09 "HgN/A
12:00 AM52 °FLow clouds.15 mph88%30.09 "HgN/A
11:30 PM
Wed, May 27
52 °FLow clouds.13 mph88%30.09 "HgN/A
11:00 PM52 °FOvercast.14 mph88%30.12 "HgN/A
10:30 PM52 °FClear.12 mph88%30.12 "Hg10 mi
10:00 PM52 °FClear.9 mph88%30.12 "Hg10 mi
9:30 PM52 °FSunny.9 mph88%30.12 "Hg10 mi
9:00 PM54 °FSunny.13 mph77%30.15 "Hg10 mi
8:30 PM54 °FScattered clouds.12 mph82%30.15 "HgN/A
8:00 PM57 °FSunny.12 mph72%30.15 "Hg10 mi
7:30 PM59 °FSunny.12 mph68%30.15 "Hg10 mi
7:00 PM61 °FSunny.13 mph59%30.15 "Hg10 mi
6:30 PM63 °FPassing clouds.12 mph56%30.15 "HgN/A
6:00 PM61 °FPassing clouds.7 mph68%30.18 "HgN/A
5:30 PM64 °FPassing clouds.12 mph56%30.18 "HgN/A
5:00 PM63 °FSunny.14 mph56%30.18 "Hg10 mi
4:30 PM64 °FPassing clouds.13 mph52%30.21 "HgN/A
4:00 PM64 °FScattered clouds.12 mph56%30.21 "HgN/A
3:30 PM64 °FPartly sunny.12 mph56%30.21 "HgN/A
3:00 PM63 °FPartly sunny.6 mph64%30.21 "HgN/A
2:30 PM63 °FScattered clouds.7 mph68%30.24 "HgN/A
2:00 PM61 °FOvercast.8 mph68%30.24 "HgN/A
1:30 PM61 °FPartly sunny.9 mph68%30.24 "HgN/A
1:00 PM61 °FPartly sunny.7 mph63%30.27 "HgN/A
12:30 PM61 °FPartly sunny.7 mph63%30.27 "HgN/A
12:00 PM63 °FPartly sunny.5 mph59%30.27 "HgN/A
11:30 AM63 °FPartly sunny.3 mph59%30.27 "HgN/A
11:00 AM61 °FPartly sunny.2 mph63%30.27 "HgN/A
10:30 AM61 °FPartly sunny.3 mph63%30.30 "HgN/A
10:00 AM63 °FPartly sunny.5 mph64%30.30 "HgN/A
9:30 AM61 °FPassing clouds.5 mph63%30.30 "HgN/A
9:00 AM59 °FPassing clouds.6 mph68%30.30 "HgN/A
8:30 AM57 °FScattered clouds.6 mph72%30.30 "HgN/A
8:00 AM55 °FOvercast.6 mph77%30.30 "HgN/A
7:30 AM55 °FPartly sunny.6 mph77%30.30 "HgN/A
7:00 AM52 °FSunny.7 mph94%30.30 "Hg10 mi
6:30 AM52 °FSunny.5 mph94%30.30 "Hg10 mi
6:00 AM48 °FClear.2 mph100%30.30 "Hg4 mi
5:30 AM48 °FFog.2 mph94%30.30 "Hg1 mi
4:30 AM48 °FFog.3 mph94%30.30 "Hg3 mi
4:00 AM46 °FLight fog.2 mph100%30.30 "Hg1 mi
3:30 AM46 °FLight fog.2 mph93%30.30 "Hg2 mi
3:00 AM48 °FLight fog.2 mph94%30.30 "Hg3 mi
2:30 AM50 °FClear.5 mph94%30.30 "Hg5 mi
2:00 AM48 °FClear.3 mph94%30.30 "Hg4 mi
1:30 AM48 °FClear.6 mph94%30.30 "Hg10 mi
1:00 AM48 °FClear.6 mph94%30.30 "Hg10 mi
Weather by CustomWeather, © 2015

See weather overviewHow to use our weather pages